Location: Beekmeers
(50.8953°N, 3.6968°E)
Time: 05:43:32
(UTC+00:00)

ISS - Visible Passes

Search period start: 20 January 2026 00:00
Search period end: 30 January 2026 00:00
Orbit: 413 x 424 km, 51.6° (Epoch: 19 January)

Date Brightness Start Highest point End Pass type
(mag) Time Alt. Az. Time Alt. Az. Time Alt. Az.
20 Jan -3.6 16:51:26 10° WSW 16:54:46 71° SSE 16:58:06 10° ENE visible
20 Jan -3.6 18:28:13 10° W 18:31:19 70° NW 18:31:19 70° NW visible
21 Jan -3.8 17:40:20 10° W 17:43:41 77° N 17:45:25 26° E visible
21 Jan -1.1 19:17:10 10° WNW 19:18:22 20° W 19:18:22 20° W visible
22 Jan -3.8 16:52:25 10° W 16:55:46 83° N 16:59:08 10° E visible
22 Jan -3.8 18:29:16 10° W 18:32:28 80° W 18:32:28 80° W visible
23 Jan -3.8 17:41:20 10° W 17:44:42 81° N 17:46:35 24° E visible
23 Jan -1.2 19:18:10 10° W 19:19:32 21° W 19:19:32 21° W visible
24 Jan -3.8 16:53:22 10° W 16:56:43 76° N 17:00:05 10° E visible
24 Jan -3.5 18:30:12 10° W 18:33:30 59° SSW 18:33:41 57° S visible
25 Jan -3.7 17:42:13 10° WNW 17:45:33 76° SSW 17:47:55 18° ESE visible
25 Jan -1.1 19:19:18 10° W 19:20:52 19° WSW 19:20:52 19° WSW visible
26 Jan -2.2 18:31:07 10° W 18:34:09 31° SSW 18:35:11 25° S visible
27 Jan -2.7 17:43:00 10° W 17:46:13 44° SSW 17:49:25 10° SE visible
27 Jan -0.6 19:21:33 10° WSW 19:22:19 11° SW 19:22:36 11° SW visible
28 Jan -1.0 18:32:23 10° W 18:34:31 16° SW 18:36:39 10° S visible
29 Jan -1.4 17:43:55 10° W 17:46:38 23° SW 17:49:20 10° SSE visible
